Starlink 31960

operational
NORAD ID: 59931 Int'l Des: 2024-106 Owner: SPXS Country: US Constellation: starlink
LEOCIRCULAR

About Starlink 31960

Description loading...

Live Position

Loading 3D Globe...

Upcoming Passes

Altitude History

Altitude vs Time

uPlot chart will show altitude changes over time

Two-Line Element Set

1 59931U 24106K 25257.32984214 .00001869 00000-0 77423-4 0 9995
2 59931 43.0003 248.2688 0001183 268.5942 91.4775 15.27579339 73550
Epoch: Sep 14, 2025 • Age: 26 hours

Current Status

Altitude 482.4 km
Velocity 7.63 km/s
Sub-Earth Point 8.95°N, 88.36°W
Launch Date Jun 1, 2024
Age 1.2 years
Type internet

Technical Details

Classification Payload
Mass 730.00 kg
Dry Mass 700.00 kg
Total Mass 730.00 kg
Length 0.30 m
Diameter 4.10 m
Span 29.00 m
Shape Box + pan
Manufacturer SPXS
Bus Type Starlink V2M
Phase Status In Orbit
Owner/State SPXS/US

Large Constellations

Loading constellations...